{"data":{"norad_id":50484,"intl_designator":"2021-132R","name":"ONEWEB-0404","alt_names":[],"object_type":"PAYLOAD","status":"ACTIVE","operator":null,"country":"UK","launch_date":"2021-12-27","launch_site_code":"TYMSC","launch_vehicle":null,"mission":null,"orbit_class":"UNKNOWN","rcs_meters":null,"size_class":null,"mass_kg":null,"dimensions":null,"purposes":["comms"],"wikipedia_slug":null,"has_3d_model":false,"image_url":null,"decayed_at":null,"tle_current":{"epoch":"2026-05-25T03:17:41.557920Z","epoch_age_seconds":57121,"freshness":"FRESH","line1":"1 50484U 21132R   26145.13728655  .00000003  00000+0 -26994-4 0  9992","line2":"2 50484  87.8909  25.6530 0002043  88.5221 271.6141 13.11414940212678","mean_motion":13.1141494,"eccentricity":0.0002043,"inclination_deg":87.8909,"raan_deg":25.653,"arg_perigee_deg":88.5221,"mean_anomaly_deg":271.6141,"bstar":-2.6994e-5,"rev_number":21267,"period_min":109.80506291929,"perigee_km":1216.1386129054,"apogee_km":1219.2422679976,"semimajor_km":7595.8274404515,"source":"CELESTRAK","updated_at":"2026-05-25T13:38:22.531180Z"}}}